{"data":{"norad_id":38867,"intl_designator":"2012-057A","name":"INTELSAT 23 (IS-23)","alt_names":[],"object_type":"PAYLOAD","status":"ACTIVE","operator":null,"country":"ITSO","launch_date":"2012-10-14","launch_site_code":"TYMSC","launch_vehicle":null,"mission":null,"orbit_class":"UNKNOWN","rcs_meters":113.2145,"size_class":null,"mass_kg":null,"dimensions":null,"purposes":["comms"],"wikipedia_slug":null,"has_3d_model":false,"image_url":null,"decayed_at":null,"tle_current":{"epoch":"2026-05-25T02:42:29.668032Z","epoch_age_seconds":72178,"freshness":"FRESH","line1":"1 38867U 12057A   26145.11284338 -.00000287  00000+0  00000+0 0  9991","line2":"2 38867   0.0130 311.3818 0000370 191.4986  87.4432  1.00275875 49726","mean_motion":1.00275875,"eccentricity":3.7e-5,"inclination_deg":0.013,"raan_deg":311.3818,"arg_perigee_deg":191.4986,"mean_anomaly_deg":87.4432,"bstar":0,"rev_number":4972,"period_min":1436.0383292592,"perigee_km":35783.88837203,"apogee_km":35787.008477352,"semimajor_km":42163.585424691,"source":"CELESTRAK","updated_at":"2026-05-25T13:38:14.332452Z"}}}